CZ-6A DEB

Satellite information

Favourite Embed

Satellite Type and Status

DEBRISIN ORBIT

Key statistics

Satellite CZ-6A DEB at a glance.

Uptime

1082

Days in orbit

Revolutions

≈ 14.3

Per day

Orbit

SSO

Sun Synchronous Orbit

Inclination

98.7

Latest

Satellite identification and parameters

Extended collection of information and parameters for CZ-6A DEB.

Object identification

Identified? True

Debris? True

Object name: CZ-6A DEB

International designator: 2022-151LN

Object number (NORAD): 54562

Object ID (CCSDS): 54562

Country: PEOPLES REPUBLIC OF CHINA (PRC)

Current information (Y/N): Y

RCS size: SMALL

Orbital parameters

Period: 100.617 minutes

Inclination: 98.7203 deg

SMA: 7165.965 km

Apoapsis: 831.686 km

Periapsis: 743.975 km

RAAN: 324.3642 deg

Eccentricy: 0.00611995

Argument of periapsis: 285.589 deg

Mean anomaly: 73.8543 deg

Mean motion: 14.31168314 rev/day

Mean motion (dot): 0.00001712 rev/day2

B* drag term: 0.00065242156 1/REarth

Two-line elements (TLE)

Creation date: Oct. 28, 2025, 2:18 a.m.

Reference frame: TEME

Reference center: EARTH

Epoch: Oct. 27, 2025, 12:37 p.m. UTC

TLE line 0: 0 CZ-6A DEB

TLE line 1: 1 54562U 22151LN 25300.52614162 .00001712 00000-0 65242-3 0 9993

TLE line 2: 2 54562 98.7203 324.3642 0061200 285.5890 73.8543 14.31168314154027

Live tracking on map

Real-time ground track for satellite CZ-6A DEB.

In-orbit conjunctions

A list of the most updated potential collisions computed for object CZ-6A DEB.

Target Orbit TCA Probability of collision Miss distance Type
METEOR 2-8 DEB LEO 2025-02-02 12:41:04 0.0001200137 285.0 (m) DEBRIS
NOAA 16 DEB SSO 2024-11-13 16:17:34 0.001383118 129.0 (m) DEBRIS
SL-3 R/B LEO 2024-10-27 01:38:08 0.001128625 92.0 (m) ROCKET BODY

Associated space launch

Chinese satellite reported for atmospheric/ocean/environmental/spatial parameter research purposes, details TBD.

CZ-6A DEB was lifted into orbit during the mission ‘Long March 6A | Yunhai 3’, on board a Long March 6A space rocket.

The launch took place on Nov. 11, 2022, 10:52 p.m. from Launch Complex 9A.

For more information about the launch, click the button.

Launch to space Long March 6A | Yunhai 3
Long March 6A | Yunhai 3

Agency: N/A

Status: Launch Successful

Launch date: Nov. 11, 2022, 10:52 p.m. UTC

Rocket: Long March 6A

Launch pad: Launch Complex 9A

Location: Taiyuan Satellite Launch Center, People's Republic of China

...

Latest news about this satellite

There are no fresh news available about this satellite. Check back as we update our databases every day.


Newsletter sign-up

Weekly statistics, charts and insights to help you stay on top of the space industry.